Weather History for Salinas, CA

Change the Weather History Date:

Wednesday, November 14, 2012

  Actual Average Record
Temperature  
Mean Temperature 67 °F 56 °F  
Max Temperature 81 °F 67 °F 86 °F (2008)
Min Temperature 52 °F 45 °F 30 °F (1980)
Degree Days  
Heating Degree Days 0 9  
Month to date heating degree days 68 109  
Since 1 July heating degree days 358 443  
Cooling Degree Days 2 0  
Month to date cooling degree days 29 0  
Year to date cooling degree days 110 127  
Growing Degree Days 16 (Base 50)    
Moisture  
Dew Point 34 °F    
Average Humidity 38    
Maximum Humidity 59    
Minimum Humidity 16    
Precipitation  
Precipitation 0.00 in 0.05 in 0.81 in (1972)
Month to date precipitation 0.24 0.54  
Year to date precipitation 7.55 10.04  
Since 1 July precipitation 0.43 1.32  
Sea Level Pressure  
Sea Level Pressure 30.06 in    
Wind  
Wind Speed 10 mph (East)    
Max Wind Speed 23 mph    
Max Gust Speed 29 mph    
Visibility 10 miles    
Events      
T = Trace of Precipitation, MM = Missing Value Source: NWS Daily Summary

Daily Weather History Graph

Daily Weather History Graph

Search for Another Location

Airport:

Trip Planner

Search our weather history database for the weather conditions in past years. The results will help you decide how hot, cold, wet, or windy it might be!

Date:

Astronomy

Nov. 14, 2012 Rise Set
Actual Time 6:43 AM PST 4:57 PM PST
Civil Twilight 6:16 AM PST 5:25 PM PST
Nautical Twilight 5:45 AM PST 5:56 PM PST
Astronomical Twilight 5:14 AM PST 6:27 PM PST
Moon 7:37 AM PST (11/14) 5:53 PM PST (11/14)
Length of Visible Light 11h 08m
Length of Day
10h 13m
New Moon, 1% of the Moon is Illuminated
Nov 14
New Moon
Nov 20
First Quarter
Nov 28
Full
Dec 6
Last Quarter
Dec 13
New

Hourly Weather History & Observations

Time (PST) Temp. Dew Point Humidity Pressure Visibility Wind Dir Wind Speed Gust Speed Precip Events Conditions
12:53 AM 55.9 °F 30.9 °F 39% 30.11 in 10.0 mi East 15.0 mph - N/A   Clear
1:53 AM 55.0 °F 30.9 °F 40% 30.11 in 10.0 mi East 15.0 mph - N/A   Clear
2:53 AM 54.0 °F 30.9 °F 41% 30.10 in 10.0 mi East 11.5 mph - N/A   Clear
3:53 AM 55.0 °F 30.9 °F 40% 30.08 in 10.0 mi East 13.8 mph - N/A   Clear
4:53 AM 55.0 °F 30.0 °F 38% 30.09 in 10.0 mi East 16.1 mph - N/A   Clear
5:53 AM 55.0 °F 30.9 °F 40% 30.08 in 10.0 mi East 11.5 mph - N/A   Clear
6:53 AM 53.1 °F 30.9 °F 43% 30.10 in 10.0 mi ENE 8.1 mph - N/A   Clear
7:53 AM 55.0 °F 30.9 °F 40% 30.12 in 10.0 mi East 13.8 mph - N/A   Clear
8:53 AM 60.1 °F 30.9 °F 33% 30.10 in 10.0 mi ESE 23.0 mph 28.8 mph N/A   Clear
9:53 AM 63.0 °F 32.0 °F 31% 30.09 in 10.0 mi East 17.3 mph - N/A   Clear
10:53 AM 64.0 °F 33.1 °F 31% 30.08 in 10.0 mi East 18.4 mph - N/A   Clear
11:53 AM 72.0 °F 35.1 °F 26% 30.05 in 10.0 mi East 13.8 mph - N/A   Clear
12:53 PM 79.0 °F 28.9 °F 16% 30.03 in 10.0 mi East 13.8 mph - N/A   Clear
1:53 PM 81.0 °F 30.0 °F 16% 30.02 in 10.0 mi ESE 6.9 mph - N/A   Clear
2:53 PM 77.0 °F 33.1 °F 20% 30.03 in 10.0 mi West 9.2 mph - N/A   Clear
3:53 PM 73.0 °F 35.1 °F 25% 30.03 in 10.0 mi NW 8.1 mph - N/A   Clear
4:53 PM 69.1 °F 37.0 °F 31% 30.03 in 10.0 mi NW 9.2 mph - N/A   Clear
5:53 PM 66.0 °F 36.0 °F 33% 30.04 in 10.0 mi WNW 3.5 mph - N/A   Clear
6:53 PM 60.1 °F 37.9 °F 44% 30.04 in 10.0 mi Calm Calm - N/A   Clear
7:53 PM 55.9 °F 39.9 °F 55% 30.04 in 10.0 mi Calm Calm - N/A   Clear
8:53 PM 55.0 °F 39.0 °F 55% 30.04 in 10.0 mi NE 4.6 mph - N/A   Clear
9:53 PM 53.1 °F 37.0 °F 55% 30.04 in 10.0 mi ESE 8.1 mph - N/A   Clear
10:53 PM 52.0 °F 37.9 °F 59% 30.03 in 10.0 mi ESE 6.9 mph - N/A   Clear
11:53 PM 54.0 °F 36.0 °F 51% 30.03 in 10.0 mi Calm Calm - N/A   Clear